Weather History for KNID - November, 2013

Change the Weather History Date:

Wednesday, November 6, 2013

  Actual Average Record
Temperature  
Mean Temperature 50 °F -  
Max Temperature 69 °F - - ()
Min Temperature 32 °F - - ()
Degree Days  
Heating Degree Days 14    
Moisture  
Dew Point 8 °F    
Average Humidity 19    
Maximum Humidity 31    
Minimum Humidity 10    
Precipitation  
Precipitation 0.00 in - - ()
Sea Level Pressure  
Sea Level Pressure 30.33 in    
Wind  
Wind Speed 4 mph (SSW)    
Max Wind Speed 8 mph    
Max Gust Speed -    
Visibility 10 miles    
Events      
T = Trace of Precipitation, MM = Missing Value Source: NWS Daily Summary

Daily Weather History Graph

Daily Weather History Graph

Search for Another Location

Airport or City:

Trip Planner

Search our weather history database for the weather conditions in past years. The results will help you decide how hot, cold, wet, or windy it might be!

Date:

Astronomy

Nov. 06, 2013 Rise Set
Actual Time 6:17 AM PST 4:50 PM PST
Civil Twilight 5:51 AM PST 5:17 PM PST
Nautical Twilight 5:20 AM PST 5:47 PM PST
Astronomical Twilight 4:50 AM PST 6:17 PM PST
Moon 9:34 AM PST (11/6) 8:02 PM PST (11/6)
Length of Visible Light 11h 25m
Length of Day
10h 32m
Waxing Crescent, 14% of the Moon is Illuminated
Nov 6
Waxing Crescent
Nov 9
First Quarter
Nov 17
Full
Nov 25
Last Quarter
Dec 2
New

Hourly Weather History & Observations

Time (PST) Temp. Windchill Dew Point Humidity Pressure Visibility Wind Dir Wind Speed Gust Speed Precip Events Conditions
12:56 AM 37.9 °F 33.5 °F 5.0 °F 25% 30.30 in 10.0 mi SW 5.8 mph - N/A   Clear
1:56 AM 37.0 °F 33.3 °F 5.0 °F 26% 30.31 in 10.0 mi SW 4.6 mph - N/A   Clear
2:56 AM 34.0 °F - 3.9 °F 28% 30.32 in 10.0 mi Calm Calm - N/A   Clear
3:56 AM 33.1 °F 28.7 °F 3.9 °F 29% 30.33 in 10.0 mi SW 4.6 mph - N/A   Clear
4:56 AM 34.0 °F 28.8 °F 5.0 °F 30% 30.34 in 10.0 mi SW 5.8 mph - N/A   Partly Cloudy
5:56 AM 32.0 °F 28.7 °F 3.9 °F 31% 30.37 in 10.0 mi SSE 3.5 mph - N/A   Partly Cloudy
6:56 AM 36.0 °F 30.3 °F 5.0 °F 27% 30.38 in 10.0 mi SSW 6.9 mph - N/A   Partly Cloudy
7:56 AM 43.0 °F - 6.1 °F 22% 30.40 in 10.0 mi Calm Calm - N/A   Partly Cloudy
8:56 AM 48.9 °F - 8.1 °F 19% 30.40 in 10.0 mi Calm Calm - N/A   Partly Cloudy
9:56 AM 57.0 °F - 9.0 °F 15% 30.39 in - NNE 4.6 mph - N/A   Partly Cloudy
10:56 AM 61.0 °F - 10.0 °F 13% 30.37 in 10.0 mi Calm Calm - N/A   Partly Cloudy
11:56 AM 63.0 °F - 10.9 °F 13% 30.34 in 10.0 mi Calm Calm - N/A   Partly Cloudy
12:56 PM 66.0 °F - 10.0 °F 11% 30.31 in 10.0 mi East 4.6 mph - N/A   Partly Cloudy
1:56 PM 68.0 °F - 10.0 °F 11% 30.29 in 10.0 mi Calm Calm - N/A   Scattered Clouds
2:56 PM 69.1 °F - 10.0 °F 10% 30.27 in 10.0 mi ENE 4.6 mph - N/A   Scattered Clouds
3:56 PM 68.0 °F - 10.0 °F 11% 30.27 in 10.0 mi Calm Calm - N/A   Mostly Cloudy
4:56 PM 63.0 °F - 10.0 °F 13% 30.28 in 10.0 mi North 3.5 mph - N/A   Mostly Cloudy
5:56 PM 57.0 °F - 8.1 °F 14% 30.31 in 10.0 mi NW 4.6 mph - N/A   Mostly Cloudy
6:56 PM 55.0 °F - 8.1 °F 15% 30.31 in 10.0 mi Calm Calm - N/A   Mostly Cloudy
7:56 PM 48.9 °F - 7.0 °F 18% 30.31 in 10.0 mi SSW 5.8 mph - N/A   Mostly Cloudy
8:56 PM 51.1 °F - 9.0 °F 18% 30.32 in 10.0 mi SSW 8.1 mph - N/A   Mostly Cloudy
9:56 PM 48.0 °F - 8.1 °F 20% 30.31 in 10.0 mi SSW 8.1 mph - N/A   Mostly Cloudy
10:56 PM 45.0 °F - 8.1 °F 22% 30.30 in 10.0 mi Calm Calm - N/A   Scattered Clouds
11:56 PM 42.1 °F - 8.1 °F 25% 30.29 in 10.0 mi Calm Calm - N/A   Clear